Date String (YYYY-MM-DD hh:mm:ss) UTC,Instrument flags,Ambient pressure (hPa),Sample flow (lpm),Bypass flow (lpm),Sample temperature (°C),Ambient temperature (°C),ASC tube jacket temperature (°C),LED temperature (°C),Box temperature (°C),Sample RH (%),Span deviation,Mass concentration (μg/m³),Mass concentration (μg/m³),Mass concentration (μg/m³)
DateTimeUTC,F1_M11,P_M11,Q1_M11,Q2_M11,T1_M11,T2_M11,T3_M11,T4_M11,T5_M11,U1_M11,ZSPAN_M11,X0_M11,X2_M11,X1_M11
2022-09-11 17:00:00,,0834.4,5.01,0.00,28.8,27.6,00.0,37.5,30.7,26.3,0001.1,0011.18,0006.96,0006.67
2022-09-11 17:01:00,,0834.4,5.01,0.00,28.8,27.6,00.0,37.5,30.7,26.3,0000.8,0011.20,0006.96,0006.67
2022-09-11 17:02:00,,0834.4,4.98,0.00,28.8,27.6,00.0,37.5,30.7,25.9,0000.4,0011.10,0006.94,0006.67
2022-09-11 17:03:00,,0834.4,5.01,0.00,28.9,27.6,00.0,37.5,30.7,25.6,0000.1,0010.99,0006.92,0006.67
2022-09-11 17:04:00,,0834.4,5.01,0.00,28.9,27.6,00.0,37.5,30.7,25.6,0000.1,0010.81,0006.88,0006.67
2022-09-11 17:05:00,,0834.3,5.00,0.00,28.9,27.6,00.0,37.6,30.7,25.7,0000.2,0010.79,0006.88,0006.69
2022-09-11 17:06:00,,0834.3,4.99,0.00,28.9,27.7,00.0,37.6,30.8,25.5,0000.6,0010.78,0006.88,0006.70
2022-09-11 17:07:00,,0834.3,5.00,0.00,28.9,27.7,00.0,37.6,30.8,25.3,0000.8,0010.97,0006.91,0006.70
2022-09-11 17:08:00,,0834.3,5.01,0.00,28.9,27.7,00.0,37.6,30.8,25.4,0001.1,0009.97,0006.94,0006.73
2022-09-11 17:09:00,,0834.3,4.99,0.00,28.9,27.7,00.0,37.6,30.8,26.3,0001.2,0009.76,0006.96,0006.75
2022-09-11 17:10:00,,0834.3,5.01,0.00,29.0,27.7,00.0,37.6,30.8,26.3,0000.7,0009.83,0006.98,0006.75
2022-09-11 17:11:00,,0834.3,4.98,0.00,29.0,27.7,00.0,37.6,30.8,25.9,0000.9,0009.93,0006.99,0006.76
2022-09-11 17:12:00,,0834.3,5.01,0.00,29.0,27.7,00.0,37.6,30.9,25.4,0001.3,0010.14,0007.01,0006.76
2022-09-11 17:13:00,,0834.3,5.01,0.00,29.0,27.8,00.0,37.6,30.9,25.0,0001.9,0010.17,0007.01,0006.76
2022-09-11 17:14:00,,0834.3,4.98,0.00,29.0,27.8,00.0,37.7,30.9,24.5,0002.6,0010.29,0007.04,0006.77
2022-09-11 17:15:00,,0834.3,5.01,0.00,29.0,27.8,00.0,37.7,30.9,24.2,0002.9,0010.32,0007.07,0006.79
2022-09-11 17:16:00,,0834.3,4.99,0.00,29.0,27.8,00.0,37.7,30.9,24.2,0002.6,0010.32,0007.07,0006.78
2022-09-11 17:17:00,,0834.3,5.01,0.00,29.0,27.8,00.0,37.7,30.9,23.8,0002.4,0010.38,0007.07,0006.77
2022-09-11 17:18:00,,0834.3,5.01,0.00,29.1,27.8,00.0,37.7,30.9,23.5,0002.6,0010.20,0007.07,0006.78
2022-09-11 17:19:00,,0834.3,4.99,0.00,29.1,27.8,00.0,37.7,30.9,23.5,0002.6,0009.89,0007.04,0006.77
2022-09-11 17:20:00,,0834.3,5.01,0.00,29.1,27.9,00.0,37.7,31.0,24.2,0002.5,0009.85,0007.03,0006.77
2022-09-11 17:21:00,,0834.3,4.99,0.00,29.1,27.9,00.0,37.8,31.0,24.5,0002.9,0009.83,0007.02,0006.77
2022-09-11 17:22:00,,0834.2,5.01,0.00,29.1,27.9,00.0,37.8,31.0,23.7,0002.9,0010.10,0007.01,0006.79
2022-09-11 17:23:00,,0834.3,5.00,0.00,29.1,27.9,00.0,37.8,31.0,23.3,0002.6,0009.85,0006.99,0006.79
2022-09-11 17:24:00,,0834.3,4.99,0.00,29.1,27.9,00.0,37.8,31.0,23.0,0002.5,0010.58,0006.97,0006.79
2022-09-11 17:25:00,,0834.3,5.01,0.00,29.1,27.9,00.0,37.8,31.0,23.3,0002.3,0010.59,0006.93,0006.78
2022-09-11 17:26:00,,0834.3,5.01,0.00,29.2,27.9,00.0,37.8,31.1,23.2,0002.1,0010.54,0006.91,0006.77
2022-09-11 17:27:00,,0834.3,4.99,0.00,29.2,27.9,00.0,37.9,31.1,23.1,0002.0,0010.62,0006.93,0006.78
2022-09-11 17:28:00,,0834.3,5.00,0.00,29.2,28.0,00.0,37.9,31.1,22.4,0001.9,0010.67,0006.93,0006.79
2022-09-11 17:29:00,,0834.3,5.01,0.00,29.2,28.0,00.0,37.9,31.1,21.7,0002.2,0011.34,0006.95,0006.79
2022-09-11 17:30:00,,0834.2,4.99,0.00,29.2,28.0,00.0,37.9,31.1,21.8,0002.2,0011.23,0006.97,0006.81
2022-09-11 17:31:00,,0834.2,5.02,0.00,29.2,28.0,00.0,37.9,31.1,22.2,0002.3,0011.28,0007.01,0006.83
2022-09-11 17:32:00,,0834.3,4.98,0.00,29.3,28.0,00.0,37.9,31.1,22.2,0002.3,0011.28,0007.03,0006.84
2022-09-11 17:33:00,,0834.3,5.01,0.00,29.3,28.1,00.0,37.9,31.1,22.5,0002.1,0010.96,0007.02,0006.83
2022-09-11 17:34:00,,0834.3,5.01,0.00,29.3,28.1,00.0,37.9,31.1,22.1,0002.5,0010.85,0007.03,0006.84
2022-09-11 17:35:00,,0834.2,4.98,0.00,29.3,28.1,00.0,37.9,31.1,21.9,0002.3,0010.19,0007.05,0006.85
2022-09-11 17:36:00,,0834.1,5.01,0.00,29.3,28.1,00.0,38.0,31.2,21.7,0002.0,0010.28,0007.07,0006.85
2022-09-11 17:37:00,,0834.1,5.01,0.00,29.3,28.1,00.0,38.0,31.2,22.0,0001.9,0010.81,0007.10,0006.86
2022-09-11 17:38:00,,0834.1,4.98,0.00,29.3,28.2,00.0,38.0,31.2,22.6,0001.3,0010.81,0007.10,0006.85
2022-09-11 17:39:00,,0834.1,5.01,0.00,29.4,28.2,00.0,38.0,31.2,22.2,0000.0,0010.98,0007.11,0006.86
2022-09-11 17:40:00,,0834.1,4.99,0.00,29.4,28.2,00.0,38.0,31.2,22.1,0000.0,0010.14,0007.11,0006.86
2022-09-11 17:41:00,,0834.1,5.01,0.00,29.4,28.2,00.0,38.0,31.2,22.2,0001.7,0010.11,0007.09,0006.85
2022-09-11 17:42:00,,0834.1,5.01,0.00,29.4,28.2,00.0,38.1,31.3,21.9,0001.8,0010.14,0007.09,0006.84
2022-09-11 17:43:00,,0834.1,4.98,0.00,29.4,28.2,00.0,38.1,31.3,22.6,0001.5,0010.36,0007.11,0006.86
2022-09-11 17:44:00,,0834.1,5.01,0.00,29.4,28.2,00.0,38.1,31.3,22.2,0001.3,0010.62,0007.14,0006.87
2022-09-11 17:45:00,,0834.1,5.00,0.00,29.4,28.3,00.0,38.1,31.3,21.8,0000.7,0010.69,0007.17,0006.89
2022-09-11 17:46:00,,0834.1,4.99,0.00,29.5,28.3,00.0,38.1,31.3,21.5,0001.0,0010.72,0007.18,0006.89
2022-09-11 17:47:00,,0834.1,5.01,0.00,29.5,28.3,00.0,38.1,31.3,21.2,0001.5,0010.37,0007.15,0006.89
2022-09-11 17:48:00,,0834.1,4.99,0.00,29.5,28.3,00.0,38.1,31.3,21.8,0001.5,0009.86,0007.12,0006.88
2022-09-11 17:49:00,,0834.1,5.01,0.00,29.5,28.3,00.0,38.2,31.4,22.3,0001.1,0009.89,0007.10,0006.88
2022-09-11 17:50:00,,0834.0,5.00,0.00,29.5,28.3,00.0,38.2,31.4,23.2,0001.0,0009.71,0007.09,0006.86
2022-09-11 17:51:00,,0834.0,4.99,0.00,29.5,28.4,00.0,38.2,31.4,23.6,0001.4,0010.43,0007.08,0006.86
2022-09-11 17:52:00,,0834.0,5.01,0.00,29.6,28.4,00.0,38.2,31.4,23.2,0001.1,0010.75,0007.09,0006.86
2022-09-11 17:53:00,,0834.0,5.00,0.00,29.6,28.4,00.0,38.2,31.4,23.4,0000.7,0010.81,0007.11,0006.87
2022-09-11 17:54:00,,0834.0,4.99,0.00,29.6,28.4,00.0,38.2,31.4,23.2,0000.7,0010.66,0007.09,0006.86
2022-09-11 17:55:00,,0834.0,5.01,0.00,29.6,28.4,00.0,38.3,31.5,23.4,0000.3,0010.52,0007.07,0006.85
2022-09-11 17:56:00,,0834.0,5.01,0.00,29.6,28.5,00.0,38.3,31.5,23.1,0000.0,0011.12,0007.06,0006.83
2022-09-11 17:57:00,,0834.0,4.98,0.00,29.7,28.5,00.0,38.3,31.5,23.2,0000.0,0011.11,0007.07,0006.82
2022-09-11 17:58:00,,0834.0,5.00,0.00,29.7,28.5,00.0,38.3,31.5,23.7,0000.0,0011.35,0007.10,0006.84
2022-09-11 17:59:00,,0834.0,5.01,0.00,29.7,28.5,00.0,38.3,31.5,23.8,0000.0,0011.49,0007.10,0006.85
